Flag for U.S.A. Weather past 2 weeks in Sunnyvale, California, U.S.A.

Now
64 °F

Clear.


Feels Like: 64 °F
Forecast: 65 / 82 °F
Wind: 6 mph from Northwest

Location: Moffett Field

Current Time: Jul 2, 2015 at 6:16:59 AM

Latest Report: Jul 2, 2015 at 5:56 AM


Visibility: 10 mi

Pressure: 29.94 "Hg

Humidity: 90%

Dew point: 61 °F

Location of SunnyvaleLocation

Historic Weather in Sunnyvale — Graph

°F

Sunnyvale temperature yesterday

Maximum temperature yesterday: 82 °F (at 11:56 AM)
Minimum temperature yesterday: 63 °F (at 4:56 AM)
Average temperature yesterday: 71 °F

Past Weeks' High & Low Weather Summary

 TemperatureHumidityPressure
High89 °F (Jun 30, 3:56 PM)90% (Jun 17, 4:56 AM)30.08 "Hg (Jun 17, 4:56 AM)
Low54 °F (Jun 19, 4:56 AM)31% (Jun 30, 3:56 PM)29.81 "Hg (Jun 30, 5:56 PM)
Average66 °F69%29.96 "Hg
* Reported Jun 17 4:56 AM — Jul 2 4:56 AM, Sunnyvale, Weather by CustomWeather, © 2015

Note: Actual official high and low records may vary slightly from our data, if they occured in-between our weather recording intervals... More about our weather records

Advertising

Sunnyvale weather history for previous 24 hours

 ConditionsComfort  
Time TempWeatherWind HumidityBarometerVisibility
4:56 AM
Thu, Jul 2
66 °FClear.7 mph81%29.91 "Hg10 mi
3:56 AM67 °FClear.5 mph81%29.91 "Hg10 mi
2:56 AM67 °FClear.5 mph79%29.92 "Hg10 mi
1:56 AM68 °FClear.3 mph78%29.91 "Hg10 mi
12:56 AM67 °FLight rain. Passing clouds.3 mph81%29.91 "Hg10 mi
11:56 PM
Wed, Jul 1
67 °FClear.3 mph79%29.91 "Hg10 mi
10:56 PM71 °FClear.8 mph71%29.93 "Hg10 mi
9:56 PM70 °FClear.5 mph71%29.91 "Hg10 mi
8:56 PM72 °FSunny.No wind59%29.89 "Hg10 mi
7:56 PM73 °FLight rain. Scattered clouds.No wind62%29.89 "Hg10 mi
6:56 PM72 °FSunny.7 mph61%29.87 "Hg10 mi
5:56 PM73 °FSunny.10 mph66%29.87 "Hg10 mi
4:56 PM76 °FSunny.9 mph58%29.90 "Hg10 mi
3:56 PM80 °FSunny.12 mph49%29.90 "Hg10 mi
2:56 PM79 °FSunny.12 mph52%29.91 "Hg10 mi
1:56 PM81 °FSunny.10 mph49%29.91 "Hg10 mi
12:56 PM77 °FSunny.12 mph56%29.92 "Hg10 mi
11:56 AM82 °FSunny.8 mph53%29.91 "Hg10 mi
10:56 AM78 °FSunny.9 mph60%29.91 "Hg10 mi
9:56 AM74 °FSunny.No wind64%29.92 "Hg10 mi
8:56 AM69 °FSunny.3 mph76%29.89 "Hg10 mi
7:56 AM66 °FSunny.3 mph81%29.87 "Hg10 mi
6:56 AM63 °FSunny.No wind87%29.85 "Hg10 mi
Weather by CustomWeather, © 2015

See weather overviewHow to use our weather pages